Home   Weather   's-Hertogenbosch   Past weeks
Flag for Netherlands

Past Weather in 's-Hertogenbosch, Netherlands — Yesterday and Last 2 Weeks

Now
52 °F

Overcast.


Feels Like: 48 °F
Forecast: 53 / 48 °F
Wind: 12 mph from South

Location: Volkel

Current Time: Oct 19, 2019 at 2:08:46 am

Latest Report: Oct 19, 2019 at 12:25 am


Visibility: N/A

Pressure: 29.71 "Hg

Humidity: 77%

Dew Point: 45 °F

Location of 's-HertogenboschLocation

Past Weather in 's-Hertogenbosch — Graph

°F

's-Hertogenbosch Temperature Yesterday

Maximum temperature yesterday: 59 °F (at 10:32 am)
Minimum temperature yesterday: 50 °F (at 6:55 pm)
Average temperature yesterday: 54 °F

High & Low Weather Summary for the Past Weeks

 TemperatureHumidityPressure
High75 °F (Oct 13, 3:55 pm)100% (Oct 4, 10:33 am)30.07 "Hg (Oct 4, 10:33 am)
Low46 °F (Oct 5, 8:55 am)57% (Oct 13, 3:55 pm)29.56 "Hg (Oct 4, 12:55 pm)
Average55 °F87%29.80 "Hg
* Reported Oct 4 12:25 am — Oct 19 12:25 am, 's-Hertogenbosch. Weather by CustomWeather, © 2019

Note: Actual official high and low records may vary slightly from our data, if they occured in-between our weather recording intervals... More about our weather records

Advertising

's-Hertogenbosch Weather History for the Previous 24 Hours

Scroll right to see more
 ConditionsComfort  
Time TempWeatherWind HumidityBarometerVisibility
12:25 am
Sat, Oct 19
52 °FOvercast.12 mph77%29.71 "HgN/A
11:55 pm
Fri, Oct 18
52 °FOvercast.12 mph77%29.71 "HgN/A
11:25 pm52 °FOvercast.10 mph77%29.71 "HgN/A
10:55 pm52 °FOvercast.10 mph77%29.71 "HgN/A
10:25 pm52 °FOvercast.10 mph77%29.71 "HgN/A
9:55 pm52 °FOvercast.9 mph77%29.71 "HgN/A
9:25 pm52 °FHigh level clouds.9 mph77%29.71 "HgN/A
8:55 pm52 °FHigh level clouds.12 mph77%29.71 "HgN/A
8:25 pm52 °FHigh level clouds.12 mph82%29.71 "HgN/A
7:55 pm50 °FPassing clouds.9 mph88%29.71 "HgN/A
7:25 pm50 °FCool.6 mph88%29.71 "HgN/A
6:55 pm50 °FPassing clouds.9 mph88%29.71 "HgN/A
6:25 pm52 °FOvercast.13 mph82%29.71 "HgN/A
5:55 pm52 °FOvercast.17 mph82%29.71 "HgN/A
5:25 pm55 °FLight rain. Partly sunny.23 mph77%29.68 "HgN/A
4:55 pm57 °FBroken clouds.18 mph63%29.68 "HgN/A
4:25 pm57 °FMostly cloudy.16 mph67%29.68 "HgN/A
3:55 pm57 °FPartly sunny.24 mph63%29.65 "HgN/A
3:25 pm57 °FScattered clouds.23 mph63%29.65 "HgN/A
2:55 pm57 °FBroken clouds.22 mph67%29.65 "HgN/A
2:25 pm57 °FCloudy.24 mph67%29.62 "HgN/A
1:55 pm55 °FMore clouds than sun.23 mph72%29.62 "HgN/A
1:26 pm55 °FBroken clouds.21 mph77%29.62 "HgN/A
1:16 pm55 °FBroken clouds.17 mph77%29.62 "HgN/A
12:55 pm55 °FPartly sunny.17 mph82%29.62 "HgN/A
12:25 pm55 °FOvercast.14 mph82%29.59 "HgN/A
12:09 pm54 °FMore clouds than sun.13 mph88%29.59 "HgN/A
11:55 am54 °FBroken clouds.10 mph88%29.59 "HgN/A
11:38 am54 °FRain showers. Cloudy.16 mph82%29.62 "HgN/A
11:18 am54 °FLots of rain. Broken clouds.26 mph88%29.62 "Hg4 mi
10:32 am59 °FPartly sunny.14 mph77%29.59 "HgN/A
9:55 am57 °FMore clouds than sun.13 mph88%29.62 "HgN/A
9:25 am57 °FPartly sunny.12 mph88%29.62 "HgN/A
8:55 am55 °FPassing clouds.8 mph94%29.65 "HgN/A
8:25 am55 °FBroken clouds.9 mph94%29.65 "HgN/A
7:57 am55 °FOvercast.9 mph94%29.65 "HgN/A
7:25 am55 °FOvercast.9 mph94%29.65 "HgN/A
7:11 am55 °FMostly cloudy.9 mph94%29.68 "HgN/A
7:01 am55 °FOvercast.10 mph94%29.68 "HgN/A
6:25 am55 °FMostly cloudy.8 mph94%29.68 "HgN/A
6:05 am55 °FPassing clouds.9 mph94%29.68 "HgN/A
5:43 am55 °FRain showers. Partly cloudy.8 mph94%29.68 "Hg4 mi
4:55 am55 °FMostly cloudy.10 mph88%29.71 "HgN/A
4:44 am55 °FPartly cloudy.10 mph94%29.71 "HgN/A
4:31 am55 °FPartly cloudy.9 mph94%29.71 "HgN/A
3:55 am55 °FPartly cloudy.10 mph88%29.71 "HgN/A
3:25 am55 °FOvercast.10 mph88%29.74 "HgN/A
2:55 am55 °FMostly cloudy.9 mph94%29.74 "HgN/A
2:25 am55 °FMostly cloudy.8 mph94%29.74 "HgN/A
Weather by CustomWeather, © 2019

See weather overview